Date,TemperatureHighF,TemperatureAvgF,TemperatureLowF,DewpointHighF,DewpointAvgF,DewpointLowF,HumidityHigh,HumidityAvg,HumidityLow,PressureMaxIn,PressureMinIn,WindSpeedMaxMPH,WindSpeedAvgMPH,GustSpeedMaxMPH,PrecipitationSumIn
2014-1-1,14,11,10,11,6,3,90,80,69,30.38,30.25,7,4,12,0.00
2014-1-2,14,10,0,8,3,-6,81,72,57,30.35,30.17,11,5,21,0.00
2014-1-3,16,9,0,7,1,-7,75,68,64,30.36,29.99,15,8,21,0.00
2014-1-4,29,24,16,29,19,6,98,81,65,29.99,29.81,15,5,19,0.00
2014-1-5,28,24,16,28,22,14,98,95,92,30.00,29.77,9,3,12,0.00
2014-1-6,16,7,-1,14,4,-5,92,87,82,30.06,29.76,15,9,19,0.00
2014-1-7,7,4,1,4,1,-3,87,85,84,30.28,30.11,15,9,20,0.00
2014-1-8,16,10,3,14,7,0,91,88,85,30.50,30.28,6,3,8,0.00
2014-1-9,22,14,10,20,11,7,93,89,83,30.54,30.22,10,4,11,0.00
2014-1-10,40,32,22,40,31,20,100,98,93,30.22,29.52,17,9,19,0.95
2014-1-11,41,36,32,41,35,28,100,95,84,29.64,29.33,13,8,17,0.15
2014-1-12,40,34,30,30,28,26,89,78,61,29.85,29.63,15,9,19,0.00
2014-1-13,43,38,28,35,33,25,93,80,63,29.66,29.47,13,6,17,0.01
2014-1-14,34,29,21,31,25,20,95,85,66,29.70,29.57,19,9,24,0.01
2014-1-15,28,23,18,27,18,13,97,83,67,29.97,29.57,23,9,29,0.00
2014-1-16,31,23,16,30,20,10,97,87,78,29.86,29.51,13,10,18,0.00
2014-1-17,31,22,16,30,18,13,97,86,81,29.87,29.53,15,8,21,0.00
2014-1-18,21,18,8,19,14,6,93,85,71,29.86,29.80,11,6,16,0.00
2014-1-19,34,25,9,31,22,6,92,88,81,29.81,29.46,19,12,26,0.00
2014-1-20,34,23,10,31,17,2,87,79,68,30.06,29.48,8,3,13,0.00
2014-1-21,16,9,1,4,-2,-7,80,62,43,30.24,30.06,7,2,11,0.00
2014-1-22,11,9,7,8,4,0,88,79,68,30.16,29.85,12,7,13,0.00
2014-1-23,12,8,0,9,4,-4,89,83,64,30.47,29.97,6,2,8,0.00
2014-1-24,24,13,0,24,9,-5,97,84,73,30.43,29.41,20,12,24,0.00
2014-1-25,29,18,9,29,16,6,99,90,75,29.75,29.28,19,9,23,0.00
2014-1-26,24,14,8,21,11,4,95,89,82,29.75,29.33,15,8,24,0.00
2014-1-27,15,5,1,12,2,-3,91,86,83,30.30,29.51,13,8,17,0.00
2014-1-28,8,5,2,4,2,-2,89,86,84,30.32,30.14,14,9,17,0.00
2014-1-29,18,12,8,8,5,0,87,73,58,30.14,30.03,18,12,24,0.00
2014-1-30,31,23,15,29,14,4,97,69,53,30.03,29.65,19,12,22,0.00
2014-1-31,32,23,17,30,18,14,91,82,70,30.11,29.78,12,3,12,0.00
2014-2-1,27,23,18,25,21,16,95,92,88,30.09,29.82,6,2,7,0.00
2014-2-2,22,18,2,20,13,-2,93,81,70,30.28,30.00,9,3,9,0.00
2014-2-3,22,14,0,14,9,-3,89,78,68,30.37,30.26,8,2,10,0.10
2014-2-4,25,17,9,17,11,4,88,77,67,30.41,30.15,6,1,10,0.00
2014-2-5,23,18,13,18,13,6,92,79,58,30.37,30.02,9,5,12,0.00
2014-2-6,16,13,10,13,9,6,90,86,76,30.37,30.26,14,7,18,0.00
2014-2-7,13,10,8,7,5,1,86,79,71,30.30,30.25,18,11,24,0.00
2014-2-8,18,12,8,13,8,3,89,83,74,30.30,30.14,10,4,12,0.00
2014-2-9,22,16,12,18,13,9,90,86,74,30.15,30.04,9,4,11,0.00
2014-2-10,10,9,8,5,4,3,81,79,78,30.40,30.37,4,1,5,0.00
2014-2-11,18,10,0,7,3,-4,85,74,52,30.50,30.40,6,1,8,0.00
2014-2-12,20,20,19,9,8,8,66,61,58,30.12,30.04,5,2,6,0.00
2014-2-13,29,23,17,23,12,7,89,62,40,30.04,29.44,12,6,18,0.00
2014-2-14,28,23,15,26,18,9,94,83,70,29.85,29.42,11,6,15,0.00
2014-2-15,23,14,5,13,8,1,87,78,56,30.06,29.85,5,1,7,0.00
2014-2-16,30,20,14,22,15,7,91,80,59,30.29,29.91,6,1,8,0.04
2014-2-17,19,15,10,17,11,6,93,85,62,30.32,29.66,16,8,20,0.00
2014-2-18,42,30,16,30,24,14,94,80,58,29.95,29.59,14,6,16,0.12
2014-2-19,39,34,24,32,28,22,96,80,69,29.97,29.56,11,5,12,0.01
2014-2-20,43,35,31,43,32,26,100,90,73,29.97,29.25,21,8,26,0.56
2014-2-21,37,30,26,32,25,15,99,81,56,29.71,29.30,28,21,39,0.00
2014-2-22,29,25,22,19,16,14,78,68,59,29.98,29.71,16,10,18,0.00
2014-2-23,23,21,16,15,12,10,81,70,60,30.10,29.98,15,9,19,0.00
2014-2-24,21,18,15,14,12,9,86,76,63,30.17,30.08,14,8,16,0.00
2014-2-25,19,16,10,15,10,4,90,79,62,30.16,30.04,14,6,15,0.00
2014-2-26,16,10,4,14,5,0,92,79,69,30.11,29.56,21,11,27,0.00
2014-2-27,16,6,-8,14,1,-14,91,79,62,30.21,29.52,13,6,19,0.00
2014-2-28,20,7,-7,8,-4,-14,80,59,45,30.28,30.02,13,7,16,0.00
2014-3-1,26,19,11,20,14,8,93,80,58,30.30,30.01,10,3,12,0.04
2014-3-2,24,11,-2,9,4,-8,86,72,54,30.40,30.26,6,2,9,0.08
2014-3-3,12,3,-9,-3,-8,-13,83,63,40,30.51,30.39,6,1,9,0.00
2014-3-4,19,14,6,11,6,-4,83,68,56,30.40,30.19,8,4,9,0.00
2014-3-5,24,17,12,11,7,2,82,65,45,30.49,30.26,7,3,12,0.01
2014-3-6,30,17,5,11,7,2,87,66,43,30.49,30.12,12,5,16,0.00
2014-3-7,45,31,14,30,19,8,83,63,39,30.11,29.84,10,4,10,0.00
2014-3-8,36,30,15,30,23,12,87,76,58,30.19,29.90,6,3,11,0.00
2014-3-9,38,26,11,33,19,8,96,79,50,30.19,29.77,17,8,18,0.00
2014-3-10,45,40,36,35,33,32,87,79,67,29.77,29.54,14,8,15,0.00
2014-3-11,49,40,36,36,34,32,89,79,60,29.71,29.58,8,2,10,0.02
2014-3-12,36,26,12,32,17,1,95,72,37,30.04,29.64,11,6,14,0.12
2014-3-13,28,16,-1,22,8,-6,85,70,55,30.13,29.86,10,4,13,0.00
2014-3-14,48,39,27,32,30,22,83,69,46,29.86,29.50,19,11,25,0.02
2014-3-15,38,33,25,32,22,7,86,65,44,30.27,29.70,14,6,17,0.00
2014-3-16,25,17,8,7,2,-3,65,52,39,30.39,30.21,10,6,20,0.00
2014-3-17,32,20,8,14,5,-3,70,53,40,30.20,29.85,10,5,14,0.00
2014-3-18,44,32,21,31,23,13,78,67,56,29.95,29.77,12,6,16,0.00
2014-3-19,42,36,32,42,34,30,99,92,73,29.82,29.52,12,8,18,0.16
2014-3-20,36,32,24,31,26,21,96,76,62,30.03,29.82,13,8,17,0.00
2014-3-21,43,33,22,38,26,20,95,75,52,30.03,29.64,14,5,20,0.18
2014-3-22,40,33,23,38,28,13,97,81,64,30.25,29.66,9,5,13,0.00
2014-3-23,24,20,14,17,10,6,81,65,55,30.39,30.25,11,4,16,0.00
2014-3-24,27,21,14,16,12,9,84,70,56,30.36,30.03,12,6,16,0.00
2014-3-25,26,22,15,23,15,8,93,72,51,30.17,29.91,15,7,18,0.00
2014-3-26,32,22,9,20,12,6,91,69,43,30.32,30.04,11,3,14,0.00
2014-3-27,41,36,32,40,30,19,96,79,52,30.04,29.49,14,10,16,0.10
2014-3-28,48,38,30,47,35,27,99,90,81,30.15,29.41,19,7,20,0.32
2014-3-29,43,35,30,31,28,27,89,79,55,30.20,30.10,7,3,11,0.00
2014-3-30,50,36,23,30,25,21,95,69,40,30.23,30.06,7,2,8,0.00
2014-3-31,57,53,54,37,30,-100,52,46,44,30.07,29.74,20,-28,23,0.00
2014-4-1,54,0,200,-100,-100,-100,0,0,100,29.97,29.78,11,-999,11,0.00
2014-4-2,52,27,34,33,-22,-100,69,33,38,30.15,29.97,7,-394,7,0.00
2014-4-3,43,37,32,31,28,24,85,69,51,30.10,29.77,16,8,23,0.22
2014-4-4,43,37,31,43,35,30,100,94,84,29.78,29.39,20,10,26,0.35
2014-4-5,44,36,30,30,26,20,95,69,38,30.15,29.78,13,6,17,0.02
2014-4-6,55,43,32,33,26,20,72,52,31,30.15,29.94,7,3,10,0.00
2014-4-7,56,46,35,32,28,26,74,53,34,29.94,29.51,9,2,14,0.00
2014-4-8,56,44,36,41,34,28,86,68,47,29.82,29.50,12,4,15,0.00
2014-4-9,55,46,31,35,29,22,81,53,37,29.97,29.81,14,5,19,0.00
2014-4-10,61,53,44,44,36,31,67,52,43,29.83,29.61,23,9,28,0.00
2014-4-11,62,49,32,39,29,19,92,53,22,29.98,29.83,12,3,14,0.00
2014-4-12,69,52,42,48,36,25,90,56,26,29.98,29.69,14,5,23,0.10
2014-4-13,63,56,50,61,53,46,99,88,72,29.73,29.46,18,5,20,0.70
2014-4-14,65,44,26,60,40,25,98,86,75,29.87,29.25,25,10,34,0.15
2014-4-15,32,27,22,25,16,7,97,67,36,30.22,29.84,14,6,19,0.04
2014-4-16,46,35,24,27,20,15,80,56,38,30.37,30.22,14,8,19,0.00
2014-4-17,59,46,35,38,32,26,83,58,37,30.24,30.14,15,8,21,0.00
2014-4-18,57,47,38,43,38,29,93,72,53,30.30,30.19,11,3,16,0.00
2014-4-19,61,47,33,35,30,26,84,56,28,30.40,30.21,12,7,16,0.00
2014-4-20,73,57,42,43,34,29,60,44,25,30.26,29.98,12,6,17,0.00
2014-4-21,74,62,54,55,44,33,98,54,35,29.98,29.69,10,6,14,0.13
2014-4-22,54,46,38,54,36,27,100,71,49,29.97,29.64,12,8,21,0.00
2014-4-23,54,42,31,34,28,25,87,60,32,30.11,29.97,12,3,14,0.00
2014-4-24,57,49,43,37,28,21,67,46,25,30.06,29.73,18,8,23,0.01
2014-4-25,57,47,40,45,39,24,95,75,40,29.75,29.60,13,5,17,0.21
2014-4-26,57,47,38,40,35,32,87,66,39,30.01,29.74,10,3,13,0.00
2014-4-27,57,47,39,35,31,28,76,57,35,30.11,29.92,17,11,22,0.00
2014-4-28,57,49,44,38,34,31,65,55,40,29.94,29.65,20,14,28,0.00
2014-4-29,68,53,45,57,48,38,99,85,40,29.66,29.44,20,6,20,0.52
2014-4-30,57,52,43,51,47,39,96,85,72,29.75,29.62,12,6,14,0.03
2014-5-1,46,43,38,43,41,36,100,91,83,29.74,29.65,16,8,19,0.16
2014-5-2,50,45,43,45,44,42,99,95,84,29.73,29.67,14,8,16,0.04
2014-5-3,57,50,44,47,43,38,98,81,49,29.78,29.55,16,7,21,0.14
2014-5-4,55,48,41,42,35,25,84,62,38,30.04,29.77,12,5,16,0.00
2014-5-5,56,47,41,40,35,33,84,64,46,30.04,29.91,8,2,11,0.00
2014-5-6,63,51,40,43,39,36,89,65,38,30.03,29.91,11,5,15,0.00
2014-5-7,64,54,46,52,46,38,84,75,60,29.96,29.81,18,10,23,0.01
2014-5-8,86,69,52,68,57,46,84,66,46,29.85,29.73,11,6,15,0.00
2014-5-9,78,67,53,64,58,44,97,76,51,29.74,29.58,19,11,22,0.46
2014-5-10,66,56,45,49,44,38,90,66,40,29.94,29.74,10,4,14,0.00
2014-5-11,80,65,44,61,50,41,90,60,35,29.95,29.83,10,4,13,0.00
2014-5-12,71,64,60,68,60,57,93,89,73,29.88,29.80,10,3,15,0.44
2014-5-13,72,64,51,69,61,50,98,91,79,30.03,29.71,16,7,20,0.02
2014-5-14,58,53,48,51,47,43,97,82,60,30.10,29.91,7,1,8,0.35
2014-5-15,48,43,36,47,41,33,98,92,76,30.00,29.74,11,6,16,0.43
2014-5-16,46,39,31,38,34,30,98,83,67,30.03,29.97,7,2,11,0.00
2014-5-17,56,46,35,43,34,26,96,69,33,30.10,30.01,12,4,17,0.00
2014-5-18,64,54,42,40,36,31,78,53,30,30.18,30.10,15,7,21,0.00
2014-5-19,70,59,48,50,41,36,87,52,29,30.21,30.00,14,6,18,0.11
2014-5-20,77,66,54,65,57,46,89,73,64,30.06,29.75,15,7,19,0.05
2014-5-21,78,69,55,69,62,53,99,80,45,29.82,29.73,8,2,10,0.15
2014-5-22,66,59,50,54,50,45,97,74,48,30.04,29.82,10,3,17,0.00
2014-5-23,64,55,45,51,47,44,97,77,59,30.13,30.04,9,3,13,0.00
2014-5-24,75,59,42,51,46,41,99,67,36,30.18,30.08,5,1,12,0.00
2014-5-25,78,65,49,54,50,47,95,62,35,30.10,29.97,8,2,18,0.00
2014-5-26,80,71,58,65,58,50,83,65,49,29.98,29.83,12,5,15,0.00
2014-5-27,78,71,66,70,67,63,95,87,75,29.87,29.78,12,4,15,0.00
2014-5-28,72,65,58,64,58,53,95,80,62,30.00,29.83,6,2,11,0.00
2014-5-29,80,66,52,59,53,50,93,67,39,30.08,30.00,5,1,8,0.00
2014-5-30,85,69,55,59,55,51,93,64,31,30.14,30.05,5,1,6,0.00
2014-5-31,87,72,58,62,57,53,94,63,32,30.14,30.00,11,1,14,0.00
2014-6-1,86,75,60,64,52,44,76,47,29,30.05,29.83,13,7,15,0.00
2014-6-2,81,75,69,72,66,62,93,76,63,29.86,29.69,22,8,24,0.20
2014-6-3,71,67,61,64,56,50,89,69,49,29.86,29.69,15,6,22,0.15
2014-6-4,68,61,53,61,56,51,96,83,69,29.84,29.78,5,1,7,0.29
2014-6-5,73,60,46,52,46,39,95,64,34,29.93,29.81,6,1,10,0.00
2014-6-6,81,63,48,52,47,42,94,61,27,29.95,29.88,4,1,7,0.00
2014-6-7,82,69,53,58,49,43,90,54,26,29.97,29.78,9,2,12,0.00
2014-6-8,76,67,60,61,56,49,96,70,51,29.93,29.74,6,1,9,0.19
2014-6-9,80,68,57,60,56,50,94,66,42,29.97,29.85,6,1,10,0.00
2014-6-10,75,67,60,63,56,50,87,67,50,29.88,29.78,5,2,7,0.06
2014-6-11,76,64,57,70,63,56,99,94,77,29.78,29.60,7,2,13,0.90
2014-6-12,77,64,56,66,60,56,100,89,65,29.72,29.63,10,4,13,0.00
2014-6-13,63,57,49,56,47,43,89,71,48,29.97,29.71,6,2,11,0.00
2014-6-14,77,61,43,53,46,40,98,64,30,30.08,29.96,7,2,9,0.00
2014-6-15,80,70,54,64,54,47,82,58,44,29.99,29.78,18,8,23,0.00
2014-6-16,83,75,66,68,62,55,91,67,40,29.97,29.83,9,4,13,0.00
2014-6-17,81,76,69,71,66,58,87,72,59,29.88,29.69,20,7,22,0.00
2014-6-18,72,68,64,68,66,63,100,93,85,29.97,29.75,14,3,16,1.52
2014-6-19,76,70,63,67,63,54,97,82,68,30.08,29.93,10,4,18,0.00
2014-6-20,69,64,61,62,59,54,94,84,69,30.02,29.87,9,3,13,0.05
2014-6-21,77,67,59,69,63,58,98,87,69,29.94,29.79,9,2,13,0.61
2014-6-22,81,72,63,71,66,62,100,84,65,29.86,29.77,6,1,8,0.06
2014-6-23,77,70,65,71,67,61,98,91,81,29.82,29.75,7,2,9,0.21
2014-6-24,79,72,68,71,69,66,100,90,69,29.80,29.76,6,1,9,0.11
2014-6-25,77,69,63,70,66,61,100,91,72,29.93,29.80,4,1,6,0.05
2014-6-26,78,69,63,68,65,61,100,87,64,30.01,29.92,4,0,4,0.00
2014-6-27,84,73,62,70,66,62,99,79,55,30.02,29.93,8,4,12,0.00
2014-6-28,84,76,69,74,69,65,89,80,61,30.00,29.89,11,7,13,0.00
2014-6-29,83,76,70,72,70,64,97,81,56,29.91,29.79,14,8,18,0.47
2014-6-30,85,77,68,75,72,66,97,84,64,29.84,29.56,14,6,15,0.24
2014-7-1,78,71,64,68,65,62,99,83,59,29.66,29.45,16,8,18,0.16
2014-7-2,68,64,58,64,59,55,91,85,73,29.90,29.65,13,6,15,0.00
2014-7-3,70,62,55,56,51,44,95,70,43,30.10,29.90,7,2,15,0.12
2014-7-4,78,64,49,56,49,43,99,65,29,30.25,30.10,4,1,8,0.00
2014-7-5,76,65,51,59,54,49,94,69,43,30.22,29.98,11,4,15,0.00
2014-7-6,79,71,62,73,65,58,96,82,70,29.98,29.59,15,6,21,0.55
2014-7-7,81,74,68,72,66,58,98,78,46,29.65,29.55,18,5,18,0.09
2014-7-8,73,69,65,66,64,60,98,85,71,29.69,29.49,11,3,21,0.56
2014-7-9,72,65,59,60,57,52,99,78,53,29.97,29.69,4,1,10,0.00
2014-7-10,78,64,51,60,54,50,99,73,40,30.12,29.97,4,0,7,0.00
2014-7-11,79,68,54,62,57,53,97,72,43,30.16,30.04,6,2,8,0.00
2014-7-12,76,71,64,72,66,60,96,87,70,30.07,29.75,9,3,11,0.12
2014-7-13,77,71,65,74,66,62,99,85,62,29.83,29.67,25,4,28,0.64
2014-7-14,76,68,57,66,60,56,99,79,54,29.79,29.68,10,1,10,0.00
2014-7-15,64,60,56,57,55,52,95,84,69,29.87,29.69,6,2,11,0.01
2014-7-16,68,60,53,57,53,49,93,77,61,29.96,29.87,5,1,12,0.00
2014-7-17,73,62,49,59,51,46,100,73,39,30.07,29.96,9,2,13,0.00
2014-7-18,76,65,50,59,54,49,98,71,42,30.15,30.05,6,2,8,0.00
2014-7-19,81,69,57,63,57,54,92,67,39,30.05,29.93,5,1,8,0.00
2014-7-20,80,69,57,63,59,55,96,72,42,30.00,29.94,5,1,7,0.00
2014-7-21,83,72,60,68,64,58,92,76,56,30.03,29.96,7,2,8,0.00
2014-7-22,87,76,66,73,68,64,95,77,52,29.99,29.81,14,6,19,0.27
2014-7-23,75,68,60,67,59,54,96,74,54,30.04,29.85,11,3,12,0.00
2014-7-24,75,64,54,56,52,48,93,68,42,30.09,29.99,6,1,8,0.00
2014-7-25,74,63,50,61,56,49,94,78,56,30.03,29.86,7,2,8,0.00
2014-7-26,77,69,60,68,63,58,95,83,66,29.87,29.71,7,3,10,0.00
2014-7-27,81,69,61,74,66,59,100,90,63,29.73,29.55,10,2,13,0.08
2014-7-28,67,61,51,62,55,49,97,82,54,29.97,29.71,8,3,9,0.00
2014-7-29,72,62,48,61,56,48,98,82,58,29.96,29.89,7,2,14,0.00
2014-7-30,72,62,52,62,56,47,100,82,48,29.95,29.90,8,1,12,0.00
2014-7-31,76,66,54,64,59,51,96,79,61,29.95,29.92,9,3,15,0.00
2014-8-1,81,70,62,67,61,56,95,74,44,30.02,29.94,7,2,9,0.00
2014-8-2,80,67,54,63,58,54,100,75,44,30.08,30.00,4,1,8,0.00
2014-8-3,83,69,53,64,60,52,100,76,44,30.08,29.98,7,1,9,0.00
2014-8-4,82,73,63,69,65,62,97,80,58,30.01,29.95,7,1,10,0.00
2014-8-5,81,70,65,71,66,64,97,88,62,29.98,29.93,6,1,10,0.44
2014-8-6,82,69,60,68,60,49,100,76,32,30.00,29.93,5,1,8,0.01
2014-8-7,82,68,54,62,57,52,99,70,37,30.05,29.98,5,1,8,0.00
2014-8-8,82,70,59,64,58,51,94,66,35,30.07,29.99,7,2,11,0.00
2014-8-9,79,69,57,61,57,54,91,67,42,30.07,29.99,9,2,14,0.00
2014-8-10,84,72,59,66,62,57,97,74,50,30.02,29.89,5,1,8,0.00
2014-8-11,77,72,67,70,67,66,98,87,76,29.90,29.65,3,0,7,0.01
2014-8-12,67,62,57,66,62,56,100,97,91,29.86,29.59,6,2,11,0.08
2014-8-13,76,64,52,60,54,48,100,75,42,29.94,29.85,6,1,11,0.01
2014-8-14,68,60,48,52,48,41,95,67,41,30.04,29.94,5,1,11,0.00
2014-8-15,72,59,43,57,49,42,99,72,38,30.01,29.89,10,2,13,0.00
2014-8-16,78,68,57,68,61,49,94,79,68,29.89,29.80,13,5,17,0.00
2014-8-17,76,70,64,68,66,63,98,88,73,29.91,29.83,6,1,8,0.01
2014-8-18,79,69,60,69,64,60,98,86,69,29.88,29.72,6,2,8,0.00
2014-8-19,77,69,65,72,68,64,99,96,80,29.72,29.61,12,4,19,1.47
2014-8-20,78,71,63,69,66,63,100,86,67,29.86,29.66,8,1,12,0.00
2014-8-21,79,70,63,72,68,63,100,93,77,29.90,29.84,7,1,7,0.00
2014-8-22,81,74,69,74,72,68,100,92,78,29.92,29.82,6,1,7,0.00
2014-8-23,81,73,67,70,68,66,98,83,63,29.95,29.86,8,2,11,0.00
2014-8-24,81,73,67,71,68,66,98,84,65,29.99,29.92,8,3,9,0.00
2014-8-25,83,75,69,77,71,67,96,89,76,29.96,29.89,7,2,11,0.10
2014-8-26,79,70,62,72,68,60,99,92,79,30.05,29.91,9,2,13,0.67
2014-8-27,77,66,57,64,60,55,100,82,57,30.08,30.01,3,0,8,0.00
2014-8-28,73,64,52,56,53,48,94,70,44,30.10,30.01,7,2,12,0.00
2014-8-29,76,68,62,71,62,51,91,82,66,30.02,29.84,11,6,16,0.00
2014-8-30,81,75,70,73,70,66,93,84,70,29.85,29.72,19,9,21,0.01
2014-8-31,81,73,67,71,68,66,100,87,63,29.86,29.78,8,3,11,0.00
2014-9-1,79,73,69,73,70,66,98,90,72,29.80,29.64,16,7,19,0.22
2014-9-2,77,70,62,68,63,59,99,80,54,29.86,29.72,6,1,11,0.00
2014-9-3,79,69,58,68,60,56,99,76,45,29.95,29.86,8,2,10,0.00
2014-9-4,70,68,66,65,62,61,92,81,80,29.92,29.86,11,5,18,0.31
2014-9-6,72,66,60,55,51,51,74,57,49,30.07,30.04,3,1,5,0.00
2014-9-7,76,65,57,57,55,49,93,75,40,30.10,30.07,6,1,10,0.00
2014-9-8,75,66,57,59,53,40,92,69,29,30.11,29.95,8,4,11,0.00
2014-9-9,77,68,60,64,60,57,90,76,56,29.98,29.85,8,4,11,0.00
2014-9-10,76,67,55,73,65,53,100,92,86,29.85,29.44,16,9,22,0.68
2014-9-11,58,53,50,53,49,47,96,86,73,30.19,29.67,9,4,12,0.00
2014-9-12,57,51,47,49,47,44,98,86,62,30.28,30.14,4,1,10,0.18
2014-9-13,60,51,43,49,46,41,100,84,55,30.27,30.10,6,1,9,0.12
2014-9-14,61,51,40,50,45,39,100,82,57,30.29,30.12,10,4,14,0.00
2014-9-15,62,54,47,56,50,45,98,88,75,30.12,30.00,5,2,6,0.01
2014-9-16,63,51,40,55,45,40,100,83,52,30.13,30.03,6,1,10,0.01
2014-9-17,64,52,40,53,45,39,98,81,52,30.03,29.92,7,2,10,0.00
2014-9-18,70,55,42,56,50,42,100,86,58,30.13,29.96,5,1,7,0.00
2014-9-19,70,58,47,57,52,46,100,82,57,30.17,29.89,11,6,14,0.00
2014-9-20,74,65,60,68,60,50,99,82,66,29.89,29.65,15,8,20,0.38
2014-9-21,65,57,46,65,53,41,100,89,75,30.06,29.54,9,4,17,0.33
2014-9-22,60,51,39,49,44,37,95,79,61,30.22,30.06,5,1,11,0.00
2014-9-23,70,57,47,57,50,44,96,80,56,30.29,30.22,7,2,12,0.00
2014-9-24,73,61,49,55,52,48,98,75,45,30.36,30.25,8,2,10,0.00
2014-9-25,78,63,52,60,55,49,96,77,44,30.26,30.18,5,1,8,0.00
2014-9-26,79,63,51,58,52,45,96,72,32,30.25,30.18,3,0,7,0.00
2014-9-27,77,63,49,60,55,48,99,77,46,30.24,30.12,6,1,8,0.00
2014-9-28,79,64,53,61,56,52,99,80,46,30.14,30.01,3,0,5,0.00
2014-9-29,76,61,49,61,56,49,100,85,55,30.01,29.85,8,3,13,0.09
2014-9-30,57,51,46,50,48,45,97,88,76,30.01,29.92,5,2,9,0.00
2014-10-1,63,56,52,54,51,49,95,86,70,30.02,29.92,8,2,14,0.00
2014-10-2,71,63,54,65,58,51,97,86,78,29.94,29.66,11,6,15,0.22
2014-10-3,66,58,46,65,56,41,100,92,73,29.65,29.31,11,5,24,1.49
2014-10-4,46,44,40,43,40,35,97,87,71,29.65,29.55,13,4,17,0.57
2014-10-5,53,48,43,44,39,35,97,73,51,29.66,29.59,16,6,21,0.07
2014-10-6,60,50,45,52,46,41,95,87,64,29.60,29.49,13,4,16,0.03
2014-10-7,64,52,42,55,46,39,93,81,62,29.71,29.58,12,5,17,0.04
2014-10-8,59,51,42,50,40,32,94,68,40,29.94,29.70,17,3,24,0.00
2014-10-9,42,39,36,41,37,35,96,94,85,30.10,29.94,0,0,0,0.00
2014-10-10,58,45,33,46,37,32,100,76,40,30.17,30.09,3,0,7,0.00
2014-10-11,60,44,33,42,36,31,98,76,36,30.23,30.13,5,1,7,0.00
2014-10-12,61,50,36,41,38,34,96,67,37,30.16,29.90,13,5,17,0.00
2014-10-13,70,60,50,65,58,40,100,93,63,29.90,29.60,15,4,18,0.11
2014-10-14,70,62,56,64,61,55,100,94,80,29.60,29.46,15,6,18,0.93
2014-10-15,62,57,52,57,54,51,100,92,76,29.75,29.58,7,2,8,0.01
2014-10-16,58,54,53,58,54,51,100,97,89,29.75,29.63,6,1,9,0.05
2014-10-17,58,53,46,55,51,44,100,93,79,29.72,29.47,12,4,17,0.03
2014-10-18,47,44,33,44,40,31,96,87,77,30.14,29.71,8,4,14,0.01
2014-10-19,51,40,29,42,36,28,99,84,64,30.18,29.89,11,4,15,0.01
2014-10-20,61,51,46,53,47,42,97,86,72,29.91,29.74,7,4,12,0.03
2014-10-21,53,46,36,45,41,34,95,83,56,30.24,29.91,7,2,11,0.00
2014-10-22,55,41,28,41,35,26,98,82,49,30.37,30.24,4,1,7,0.00
2014-10-23,57,44,32,44,40,31,100,86,56,30.27,30.05,6,1,7,0.00
2014-10-24,60,52,44,53,47,43,98,84,77,30.05,29.88,7,2,9,0.00
2014-10-25,64,57,47,55,46,32,99,71,40,29.88,29.78,10,4,17,0.00
2014-10-26,56,49,37,40,36,32,92,62,44,29.94,29.83,7,2,12,0.00
2014-10-27,75,59,37,60,48,35,94,67,50,29.89,29.58,17,6,21,0.00
2014-10-28,71,58,48,60,48,35,98,73,52,29.84,29.57,21,10,24,0.37
2014-10-29,50,45,42,41,39,36,93,80,67,30.07,29.82,9,2,17,0.05
2014-10-30,49,45,40,41,40,38,93,82,68,30.09,29.96,11,2,13,0.00
2014-10-31,45,38,32,42,33,22,97,84,62,30.27,29.89,13,6,19,0.22
2014-11-1,42,32,24,25,20,17,84,64,36,30.42,30.27,7,2,10,0.00
2014-11-2,51,36,22,38,26,20,94,71,37,30.41,30.19,8,3,12,0.00
2014-11-3,61,51,44,41,32,22,65,49,34,30.19,29.90,14,8,23,0.00
2014-11-4,61,51,44,53,44,32,98,79,36,29.95,29.78,21,11,27,0.15
2014-11-5,50,46,40,42,37,33,90,72,52,30.09,29.88,16,6,24,0.02
2014-11-6,47,43,37,47,39,29,98,87,73,30.10,29.67,12,5,17,0.15
2014-11-7,40,38,32,35,33,29,90,84,71,30.12,29.85,8,3,11,0.00
2014-11-8,42,40,33,41,34,26,98,80,63,29.88,29.66,10,6,18,0.10
2014-11-9,45,39,31,37,32,26,87,75,59,29.87,29.72,17,5,21,0.00
2014-11-10,56,46,39,43,38,36,94,75,55,29.85,29.59,14,7,19,0.00
2014-11-11,53,44,34,48,39,27,98,83,68,29.94,29.55,16,7,23,0.23
2014-11-12,34,31,29,27,23,20,78,71,64,30.20,29.94,11,6,16,0.00
2014-11-13,31,27,20,29,24,19,97,92,75,30.21,30.16,7,1,8,0.04
2014-11-14,30,26,22,27,24,20,97,90,79,30.32,30.20,5,1,7,0.01
2014-11-15,29,26,25,24,22,19,94,82,74,30.34,30.19,7,4,10,0.00
2014-11-16,29,27,24,28,25,23,95,93,90,30.20,29.83,9,5,10,0.00
2014-11-17,30,21,16,27,18,14,93,88,76,29.83,29.69,16,8,18,0.00
2014-11-18,19,18,16,18,16,14,94,93,92,30.06,29.78,11,7,14,0.00
2014-11-19,26,21,15,25,17,11,95,87,70,30.05,29.67,13,8,18,0.00
2014-11-20,24,22,17,20,16,11,90,79,62,30.20,29.86,16,9,21,0.00
2014-11-21,31,21,12,20,15,9,91,78,60,30.46,30.20,6,2,8,0.01
2014-11-22,45,37,24,45,34,16,99,89,65,30.22,29.84,7,4,12,0.09
2014-11-23,51,48,45,50,47,44,100,95,87,29.85,29.08,11,7,14,0.88
2014-11-24,50,41,30,50,41,27,100,98,91,29.65,28.98,24,12,28,0.66
2014-11-25,30,29,28,28,25,23,95,86,78,30.17,29.64,16,8,23,0.00
2014-11-26,29,28,27,24,23,21,87,81,71,30.17,30.11,7,2,9,0.00
2014-11-27,31,26,19,28,22,12,96,84,72,30.35,30.13,9,2,16,0.03
2014-11-28,28,23,18,24,18,12,88,79,69,30.34,29.97,11,6,15,0.00
2014-11-29,50,38,28,47,33,24,90,82,72,29.98,29.58,14,9,21,0.05
2014-11-30,53,44,32,51,43,28,99,95,85,30.15,29.60,13,7,18,0.00
2014-12-1,32,22,16,27,13,8,83,67,55,30.64,30.15,10,5,13,0.00
2014-12-2,35,25,14,30,19,8,96,78,60,30.61,30.00,12,5,14,0.00
2014-12-3,34,32,28,32,24,17,98,74,58,30.30,29.98,16,9,19,0.00
2014-12-4,32,27,22,19,16,13,77,63,49,30.45,30.30,7,2,11,0.00
2014-12-5,38,33,29,31,27,18,84,77,65,30.32,30.16,7,2,9,0.00
2014-12-6,42,34,26,32,27,19,95,75,53,30.65,30.21,9,2,11,0.00
2014-12-7,35,29,22,25,20,16,82,70,52,30.68,30.33,10,4,14,0.00
2014-12-8,37,33,30,34,29,24,99,86,76,30.33,29.98,10,6,13,0.14
2014-12-9,38,34,31,37,32,26,100,92,78,30.32,30.00,7,3,12,0.02
2014-12-10,35,30,24,26,24,21,88,78,64,30.34,30.19,6,2,9,0.00
2014-12-11,36,29,23,30,25,20,92,87,76,30.20,30.13,12,4,17,0.00
2014-12-12,36,33,30,35,32,27,99,96,92,30.25,30.13,10,6,13,0.00
2014-12-13,43,38,35,43,38,34,100,98,94,30.20,30.03,12,8,15,0.00
2014-12-14,48,46,43,47,45,43,100,98,95,30.06,30.00,8,4,11,0.00
2014-12-15,50,46,44,47,44,42,100,93,77,30.00,29.69,12,6,18,0.04
2014-12-16,45,41,32,44,41,32,100,99,95,29.95,29.61,11,5,14,0.16
2014-12-17,32,29,26,32,24,20,98,81,74,30.20,29.95,12,8,17,0.00
2014-12-18,32,30,28,30,28,24,97,89,81,30.23,30.16,6,3,7,0.00
2014-12-19,33,27,20,25,21,17,92,80,62,30.31,30.19,4,0,6,0.00
2014-12-20,30,25,20,28,23,18,94,90,81,30.28,30.24,6,2,7,0.00
2014-12-21,35,31,30,29,28,26,94,86,76,30.25,30.08,11,7,14,0.01
2014-12-22,36,32,27,35,29,23,98,87,76,30.08,29.73,11,8,18,0.24
2014-12-23,49,41,35,48,39,34,100,92,72,29.74,29.61,11,6,16,0.12
2014-12-24,40,38,34,39,37,34,99,98,93,29.73,29.36,9,2,15,0.72
2014-12-25,37,36,34,36,32,30,97,87,78,30.02,29.47,15,9,23,0.02
2014-12-26,46,40,36,42,36,32,92,85,75,30.04,29.98,13,6,18,0.00
2014-12-27,48,42,35,47,40,31,98,91,82,30.01,29.82,25,10,27,0.00
2014-12-28,35,31,28,33,26,22,96,79,62,30.22,29.98,10,4,11,0.01
2014-12-29,30,26,19,22,16,10,75,66,51,30.47,30.21,5,2,9,0.00
2014-12-30,20,19,17,13,9,6,74,65,59,30.58,30.47,9,4,15,0.00
2014-12-31,23,17,14,14,10,8,86,73,63,30.51,30.06,21,12,27,0.00
2015-1-1,32,26,23,26,20,12,94,78,65,30.07,29.89,19,14,26,0.00
2015-1-2,32,27,21,23,20,14,86,75,63,30.29,30.05,10,2,12,0.00